1508893200.57,23432,9.63,74036.8,-2.09,-31.45,-32.45,0,*5C
1508893201.83,23433,9.63,74036.3,-2.09,-31.73,-32.45,0,*58
1508893203.04,23434,9.63,74038.5,-2.09,-31.79,-32.69,0,*5B
1508893204.27,23435,9.63,74032.5,-2.09,-31.91,-32.69,0,*5C
1508893205.47,23436,9.63,74038.5,-2.09,-31.79,-32.57,0,*54
1508893206.71,23437,9.63,74036.5,-2.09,-31.91,-32.69,0,*5E
1508893207.91,23438,9.63,74038.8,-2.09,-32.13,-33.03,0,*55
1508893209.21,23439,9.63,74038.0,-2.07,-32.07,-32.79,0,*53
1508893210.44,23440,9.63,74036.8,-2.09,-32.13,-32.85,0,*55
1508893211.64,23441,9.63,74036.3,-2.09,-32.23,-33.03,0,*58
1508893212.87,23442,9.63,74036.0,-2.09,-32.29,-33.21,0,*51
1508893214.12,23443,9.63,74036.8,-2.11,-32.45,-33.21,0,*53
1508893215.38,23444,9.63,74038.5,-2.11,-32.45,-33.37,0,*53
1508893216.64,23445,9.63,74036.5,-2.11,-32.39,-33.31,0,*5F
1508893217.89,23446,9.63,74038.3,-2.13,-32.45,-33.37,0,*53
1508893219.13,23447,9.63,74040.0,-2.11,-32.13,-33.03,0,*54
1508893220.36,23448,9.63,74036.5,-2.11,-32.13,-33.03,0,*5B
1508893221.65,23449,9.63,74036.8,-2.11,-31.95,-32.85,0,*58
1508893222.93,23450,9.63,74036.5,-2.13,-32.19,-33.09,0,*50
1508893224.15,23451,9.63,74036.5,-2.13,-32.35,-33.37,0,*52
1508893225.38,23452,9.63,74036.8,-2.13,-32.35,-33.21,0,*56
1508893226.61,23453,9.63,74036.5,-2.13,-32.13,-32.91,0,*59
1508893227.85,23454,9.63,74038.5,-2.15,-32.39,-33.27,0,*5C
1508893229.09,23455,9.63,74036.0,-2.15,-32.51,-33.31,0,*54
1508893230.33,23456,9.63,74038.3,-2.17,-32.35,-33.09,0,*5C
1508893231.57,23457,9.63,74040.3,-2.15,-32.23,-33.09,0,*58
1508893232.8,23458,9.63,74038.0,-2.15,-32.35,-33.09,0,*50
1508893234.05,23459,9.63,74042.0,-2.15,-32.19,-32.97,0,*59
1508893235.29,23460,9.63,74038.0,-2.15,-32.07,-32.91,0,*5A
1508893236.53,23461,9.63,74038.3,-2.15,-32.07,-32.91,0,*5B
1508893237.79,23462,9.63,74036.8,-2.13,-31.79,-32.63,0,*59
1508893239.03,23463,9.63,74036.5,-2.15,-32.07,-32.91,0,*59
1508893240.29,23464,9.63,74040.3,-2.17,-32.19,-32.91,0,*53
1508893241.55,23465,9.63,74038.3,-2.17,-32.07,-32.91,0,*5D
1508893242.77,23466,9.63,74040.0,-2.19,-32.23,-32.97,0,*50
1508893243.99,23467,9.63,74038.8,-2.19,-32.23,-32.97,0,*51
1508893245.25,23468,9.63,74042.0,-2.17,-32.07,-32.91,0,*50
1508893246.49,23469,9.63,74038.3,-2.17,-32.01,-32.91,0,*57
1508893247.72,23470,9.63,74040.3,-2.17,-32.01,-32.91,0,*5F
1508893248.95,23471,9.63,74036.3,-2.19,-32.23,-32.97,0,*56
1508893250.15,23472,9.63,74042.8,-2.19,-32.23,-33.03,0,*59
1508893251.4,23473,9.63,74040.0,-2.19,-32.07,-32.97,0,*52
1508893252.66,23474,9.63,74042.0,-2.17,-32.07,-32.91,0,*5D
1508893253.9,23475,9.63,74038.8,-2.17,-32.01,-32.69,0,*5D
1508893255.18,23476,9.63,74040.0,-2.17,-31.91,-32.79,0,*55
1508893256.44,23477,9.63,74040.0,-2.17,-31.91,-32.69,0,*55
1508893257.73,23478,9.63,74040.3,-2.17,-31.91,-32.79,0,*5B
1508893258.99,23479,9.63,74038.8,-2.17,-31.85,-32.51,0,*55
1508893260.19,23480,9.63,74040.5,-2.19,-31.79,-32.57,0,*58
1508893261.42,23481,9.63,74036.8,-2.19,-32.23,-32.85,0,*5A
1508893262.62,23482,9.63,74040.3,-2.19,-32.23,-33.03,0,*56
1508893263.84,23483,9.63,74042.3,-2.17,-32.35,-33.15,0,*59
1508893265.07,23484,9.63,74036.0,-2.19,-32.13,-32.97,0,*5F
1508893266.3,23485,9.63,74042.3,-2.19,-31.79,-32.45,0,*5E
1508893267.52,23486,9.63,74040.3,-2.19,-31.91,-32.57,0,*58
1508893268.78,23487,9.63,74038.8,-2.17,-31.57,-32.35,0,*59
1508893270.03,23488,9.63,74038.0,-2.17,-31.85,-32.57,0,*5D
1508893271.24,23489,9.63,74038.8,-2.15,-31.67,-32.39,0,*5A
1508893272.53,23490,9.63,74038.3,-2.17,-32.07,-32.79,0,*51
1508893273.78,23491,9.63,74038.8,-2.17,-32.19,-32.91,0,*59
1508893274.99,23492,9.63,74036.0,-2.19,-32.39,-33.15,0,*5B
1508893276.21,23493,9.63,74036.8,-2.19,-32.23,-32.97,0,*5A
1508893277.43,23494,9.63,74038.8,-2.19,-32.23,-32.97,0,*5D
1508893278.69,23495,9.63,74038.8,-2.17,-32.19,-32.91,0,*5D
1508893279.92,23496,9.63,74036.5,-2.19,-32.57,-33.31,0,*51
1508893281.15,23497,9.63,74040.3,-2.19,-32.75,-33.55,0,*52
1508893282.38,23498,9.63,74038.0,-2.19,-32.75,-33.55,0,*5D
1508893283.64,23499,9.63,74042.0,-2.21,-32.79,-33.55,0,*5B
1508893284.88,23500,9.63,74042.8,-2.23,-32.63,-33.37,0,*57
1508893286.14,23501,9.63,74038.5,-2.21,-32.57,-33.31,0,*55
1508893287.4,23502,9.63,74038.0,-2.23,-32.45,-33.09,0,*5C
1508893288.64,23503,9.63,74038.3,-2.23,-32.63,-33.37,0,*54
1508893289.88,23504,9.56,74034.8,-2.23,-32.45,-33.37,0,*57
1508893291.08,23505,9.63,74038.8,-2.23,-32.35,-33.21,0,*56
1508893292.32,23506,9.63,74038.8,-2.23,-32.01,-32.79,0,*5E
1508893293.58,23507,9.63,74040.3,-2.21,-31.91,-32.57,0,*5B
1508893294.81,23508,9.63,74038.8,-2.23,-32.13,-32.79,0,*53
1508893296.06,23509,9.63,74036.3,-2.23,-32.01,-32.79,0,*51
1508893297.28,23510,9.63,74040.0,-2.23,-31.79,-32.51,0,*5F
1508893298.54,23511,9.63,74038.3,-2.23,-31.85,-32.45,0,*58
1508893299.79,23512,9.63,74040.0,-2.21,-31.51,-32.13,0,*53
1508893301.07,23513,9.63,74040.0,-2.21,-31.51,-32.29,0,*5B
1508893302.28,23514,9.63,74040.5,-2.23,-31.67,-32.35,0,*56
1508893303.54,23515,9.63,74038.5,-2.21,-31.61,-32.23,0,*54
1508893304.78,23516,9.63,74036.8,-2.23,-31.79,-32.29,0,*56
1508893305.99,23517,9.63,74040.0,-2.23,-31.79,-32.35,0,*5A
1508893307.24,23518,9.63,74038.0,-2.21,-31.73,-32.57,0,*59
1508893308.48,23519,9.63,74038.0,-2.23,-31.67,-32.45,0,*5C
1508893309.76,23520,9.63,74036.0,-2.21,-31.73,-32.29,0,*5B
1508893311.01,23521,9.63,74036.0,-2.19,-31.61,-32.29,0,*52
1508893312.27,23522,9.63,74038.5,-2.19,-32.07,-32.63,0,*5C
1508893313.54,23523,9.63,74036.5,-2.17,-32.69,-33.43,0,*58
1508893314.78,23524,9.63,74038.3,-2.21,-32.57,-33.37,0,*54
1508893316.04,23525,9.63,74038.5,-2.21,-32.79,-33.55,0,*5D
1508893317.27,23526,9.63,74036.3,-2.23,-33.03,-33.73,0,*54
1508893318.48,23527,9.63,74036.3,-2.23,-33.21,-33.95,0,*5D
1508893319.71,23528,9.63,74036.3,-2.23,-33.27,-33.95,0,*54
1508893320.94,23529,9.63,74038.3,-2.23,-33.27,-33.95,0,*55
1508893322.19,23530,9.63,74040.5,-2.29,-33.27,-33.83,0,*50
1508893323.47,23531,9.63,74040.5,-2.29,-32.85,-33.61,0,*54
1508893324.73,23532,9.63,74038.5,-2.29,-32.35,-33.09,0,*52
1508893325.99,23533,9.63,74036.3,-2.29,-32.07,-32.69,0,*55
1508893327.28,23534,9.63,74038.5,-2.29,-32.19,-32.85,0,*5F
1508893328.57,23535,9.63,74038.3,-2.29,-32.07,-32.97,0,*52
1508893329.83,23536,9.63,74038.0,-2.29,-32.51,-33.27,0,*58
1508893331.09,23537,9.63,74038.8,-2.29,-32.39,-33.09,0,*5B
1508893332.33,23538,9.63,74038.0,-2.27,-32.19,-32.91,0,*58
1508893333.59,23539,9.63,74036.8,-2.29,-32.39,-33.09,0,*55
1508893334.84,23540,9.63,74038.0,-2.31,-31.85,-32.51,0,*5A
1508893336.08,23541,9.63,74038.5,-2.31,-31.73,-32.35,0,*50
1508893337.34,23542,9.63,74038.3,-2.31,-31.51,-32.19,0,*5D
1508893338.61,23543,9.63,74038.5,-2.27,-31.61,-32.19,0,*58
1508893339.9,23544,9.63,74038.8,-2.29,-32.07,-32.75,0,*58
1508893341.17,23545,9.63,74038.0,-2.27,-31.95,-32.63,0,*58
1508893342.43,23546,9.63,74042.3,-2.29,-32.01,-32.75,0,*5C
1508893343.73,23547,9.63,74036.3,-2.29,-32.07,-32.75,0,*5B
1508893344.98,23548,9.63,74040.0,-2.29,-31.91,-32.57,0,*58
1508893346.25,23549,9.63,74042.3,-2.27,-31.95,-32.63,0,*54
1508893347.51,23550,9.63,74036.5,-2.29,-32.01,-32.75,0,*5B
1508893348.81,23551,9.63,74038.8,-2.29,-32.07,-32.75,0,*5C
1508893350.05,23552,9.63,74042.3,-2.29,-32.01,-32.69,0,*54
1508893351.32,23553,9.63,74036.0,-2.29,-31.85,-32.39,0,*5F
1508893352.57,23554,9.63,74036.8,-2.29,-31.85,-32.57,0,*50
1508893353.83,23555,9.63,74042.0,-2.29,-31.91,-32.57,0,*54
1508893355.12,23556,9.63,74038.8,-2.29,-32.19,-32.75,0,*54
1508893356.35,23557,9.63,74038.8,-2.27,-32.39,-33.09,0,*53
1508893357.64,23558,9.63,74038.5,-2.29,-32.75,-33.49,0,*5E
1508893358.93,23559,9.63,74040.3,-2.29,-32.75,-33.49,0,*5F
1508893360.17,23560,9.63,74036.8,-2.31,-32.57,-33.43,0,*56
1508893361.41,23561,9.63,74038.0,-2.31,-32.39,-33.09,0,*51
1508893362.65,23562,9.63,74036.8,-2.31,-32.23,-33.09,0,*59
1508893363.9,23563,9.63,74034.5,-2.31,-32.01,-32.75,0,*52
1508893365.16,23564,9.63,74038.5,-2.33,-32.13,-32.75,0,*54
1508893366.42,23565,9.63,74036.0,-2.33,-32.29,-33.03,0,*5C
1508893367.64,23566,9.63,74040.8,-2.31,-32.01,-32.69,0,*5A
1508893368.87,23567,9.63,74036.5,-2.31,-32.35,-32.97,0,*5D
1508893370.11,23568,9.63,74034.8,-2.33,-32.39,-33.21,0,*50
1508893371.35,23569,9.63,74036.8,-2.31,-32.39,-33.09,0,*59
1508893372.62,23570,9.63,74036.8,-2.31,-32.19,-32.75,0,*59
1508893373.9,23571,9.63,74040.3,-2.33,-32.07,-32.63,0,*52
1508893375.16,23572,9.63,74036.8,-2.33,-32.29,-32.91,0,*50
1508893376.4,23573,9.63,74038.0,-2.33,-32.13,-32.91,0,*58
1508893377.65,23574,9.63,74036.3,-2.31,-32.07,-32.69,0,*5F
1508893378.94,23575,9.63,74038.3,-2.33,-32.07,-32.63,0,*56
1508893380.2,23576,9.63,74038.3,-2.33,-32.13,-32.75,0,*57
1508893381.5,23577,9.63,74036.3,-2.33,-32.07,-32.79,0,*5F
1508893382.74,23578,9.63,74036.0,-2.31,-32.23,-32.75,0,*58
1508893383.97,23579,9.63,74036.5,-2.33,-32.39,-33.15,0,*57
1508893385.26,23580,9.63,74038.5,-2.33,-32.07,-32.79,0,*57
1508893386.54,23581,9.63,74040.8,-2.31,-32.07,-32.75,0,*58
1508893387.8,23582,9.63,74038.5,-2.33,-32.13,-32.75,0,*5C
1508893389.07,23583,9.63,74040.3,-2.33,-32.13,-32.75,0,*5D
1508893390.33,23584,9.63,74038.3,-2.33,-32.29,-33.03,0,*53
1508893391.59,23585,9.63,74038.3,-2.33,-32.45,-33.15,0,*5F
1508893392.79,23586,9.63,74036.5,-2.35,-32.23,-32.91,0,*57
1508893394.08,23587,9.63,74038.0,-2.33,-32.29,-32.79,0,*5C
1508893395.31,23588,9.63,74036.0,-2.33,-32.23,-32.91,0,*5F
1508893396.6,23589,9.63,74040.5,-2.33,-31.95,-32.45,0,*59
1508893397.84,23590,9.63,74038.0,-2.31,-31.85,-32.57,0,*51
1508893399.08,23591,9.63,74040.3,-2.33,-31.79,-32.39,0,*59
1508893400.35,23592,9.56,74036.8,-2.33,-31.73,-32.39,0,*50
1508893401.64,23593,9.63,74042.0,-2.33,-31.95,-32.63,0,*56
1508893402.9,23594,9.63,74042.0,-2.33,-32.13,-32.75,0,*5B
1508893404.16,23595,9.63,74040.0,-2.33,-31.91,-32.57,0,*53
1508893405.45,23596,9.63,74038.5,-2.33,-32.07,-32.63,0,*5B
1508893406.72,23597,9.63,74038.8,-2.33,-32.13,-32.75,0,*58
1508893407.95,23598,9.63,74038.3,-2.35,-32.23,-32.79,0,*5E
1508893409.19,23599,9.63,74038.5,-2.35,-32.13,-32.75,0,*50
1508893410.42,23600,9.63,74042.3,-2.35,-31.95,-32.57,0,*5E
1508893411.69,23601,9.63,74042.0,-2.35,-32.07,-32.79,0,*5B
1508893412.93,23602,9.63,74040.5,-2.35,-31.79,-32.45,0,*5D
1508893414.14,23603,9.56,74038.8,-2.35,-31.79,-32.57,0,*5F
1508893415.43,23604,9.63,74038.0,-2.33,-31.95,-32.63,0,*5B
1508893416.64,23605,9.63,74038.3,-2.31,-32.01,-32.57,0,*51
1508893417.88,23606,9.63,74040.5,-2.33,-31.67,-32.39,0,*5B
1508893419.14,23607,9.63,74038.0,-2.33,-31.33,-31.91,0,*5A
1508893420.42,23608,9.63,74040.8,-2.33,-31.39,-31.95,0,*5B
1508893421.71,23609,9.63,74038.8,-2.33,-31.39,-32.07,0,*52
1508893422.92,23610,9.63,74040.5,-2.31,-31.33,-32.01,0,*54
1508893424.21,23611,9.63,74038.0,-2.33,-31.39,-32.07,0,*5B
1508893425.47,23612,9.63,74038.8,-2.29,-31.33,-31.91,0,*55
1508893426.71,23613,9.63,74038.3,-2.31,-31.29,-31.85,0,*53
1508893427.95,23614,9.56,74034.8,-2.31,-31.45,-32.07,0,*57
1508893429.22,23615,9.63,74038.8,-2.31,-31.51,-32.19,0,*5C
1508893430.45,23616,9.63,74042.3,-2.29,-31.29,-32.01,0,*50
1508893431.71,23617,9.63,74040.3,-2.29,-31.29,-31.91,0,*5B
1508893432.97,23618,9.63,74040.8,-2.29,-31.33,-32.07,0,*53
1508893434.18,23619,9.63,74040.3,-2.27,-31.67,-32.35,0,*5C
1508893435.43,23620,9.63,74040.5,-2.29,-32.23,-32.97,0,*53
1508893436.68,23621,9.63,74038.5,-2.29,-32.35,-32.97,0,*55
1508893437.92,23622,9.63,74038.0,-2.27,-32.13,-32.79,0,*5C
1508893439.16,23623,9.63,74040.5,-2.29,-32.01,-32.69,0,*51
1508893440.42,23624,9.63,74042.3,-2.29,-31.85,-32.57,0,*54
1508893441.67,23625,9.63,74038.3,-2.31,-31.85,-32.51,0,*5A
1508893442.91,23626,9.63,74038.0,-2.31,-31.61,-32.35,0,*51
1508893444.14,23627,9.63,74038.8,-2.29,-31.67,-32.35,0,*5F
1508893445.43,23628,9.63,74040.0,-2.29,-31.61,-32.19,0,*58
1508893446.66,23629,9.63,74036.3,-2.29,-31.67,-32.23,0,*56
1508893447.92,23630,9.63,74042.3,-2.27,-31.95,-32.63,0,*59
1508893449.15,23631,9.63,74038.0,-2.29,-31.67,-32.35,0,*58
1508893450.42,23632,9.63,74040.8,-2.29,-31.85,-32.39,0,*5B
1508893451.71,23633,9.63,74038.8,-2.29,-31.85,-32.45,0,*51
1508893452.96,23634,9.63,74038.5,-2.29,-32.35,-32.97,0,*51
1508893454.21,23635,9.63,74038.8,-2.29,-32.35,-33.09,0,*56
1508893455.44,23636,9.63,74036.8,-2.29,-32.39,-33.15,0,*54
1508893456.73,23637,9.63,74036.5,-2.29,-32.19,-32.75,0,*50
1508893458.0,23638,9.63,74038.3,-2.31,-32.07,-32.75,0,*59
1508893459.27,23639,9.63,74042.0,-2.33,-32.23,-32.79,0,*50
1508893460.51,23640,9.63,74036.3,-2.31,-31.73,-32.39,0,*5E
1508893461.78,23641,9.63,74038.5,-2.31,-32.07,-32.75,0,*57
1508893463.05,23642,9.63,74038.8,-2.31,-32.19,-32.75,0,*5B
1508893464.29,23643,9.63,74036.8,-2.33,-32.39,-33.03,0,*5A
1508893465.5,23644,9.63,74040.3,-2.31,-32.01,-32.57,0,*54
1508893466.77,23645,9.63,74040.0,-2.33,-31.95,-32.51,0,*5F
1508893468.03,23646,9.56,74036.0,-2.33,-31.67,-32.29,0,*5E
1508893469.29,23647,9.63,74042.0,-2.29,-31.51,-32.23,0,*5B
1508893470.53,23648,9.63,74040.0,-2.31,-31.73,-32.23,0,*5D
1508893471.76,23649,9.63,74042.5,-2.31,-32.23,-32.97,0,*55
1508893473.03,23650,9.63,74040.8,-2.31,-32.19,-32.85,0,*57
1508893474.29,23651,9.63,74038.5,-2.31,-32.19,-32.97,0,*55
1508893475.58,23652,9.63,74040.8,-2.33,-32.07,-32.75,0,*57
1508893476.83,23653,9.63,74036.8,-2.31,-31.73,-32.51,0,*52
1508893478.07,23654,9.63,74040.8,-2.31,-31.29,-31.85,0,*50
1508893479.34,23655,9.63,74038.0,-2.31,-31.11,-31.85,0,*5A
1508893480.58,23656,9.63,74040.5,-2.31,-30.83,-31.61,0,*59
1508893481.84,23657,9.63,74040.8,-2.31,-31.11,-31.73,0,*51
1508893483.13,23658,9.63,74038.8,-2.29,-31.51,-32.19,0,*5C
1508893484.39,23659,9.56,74036.5,-2.29,-31.73,-32.39,0,*5F
1508893485.69,23660,9.63,74036.8,-2.29,-32.07,-32.75,0,*5D
1508893486.94,23661,9.63,74040.3,-2.29,-32.35,-32.97,0,*51
1508893488.17,23662,9.63,74036.8,-2.29,-32.51,-33.15,0,*5B
1508893489.43,23663,9.63,74040.5,-2.33,-32.39,-33.31,0,*59
1508893490.67,23664,9.63,74038.5,-2.31,-32.39,-33.09,0,*57
1508893491.91,23665,9.63,74038.5,-2.33,-32.39,-33.15,0,*59
1508893493.17,23666,9.63,74040.3,-2.33,-32.45,-33.21,0,*56
1508893494.4,23667,9.63,74040.3,-2.33,-32.39,-32.91,0,*56
1508893495.67,23668,9.63,74040.0,-2.33,-32.13,-32.79,0,*57
1508893496.9,23669,9.56,74038.3,-2.31,-32.07,-32.57,0,*5D
1508893498.13,23670,9.63,74046.3,-2.31,-32.01,-32.69,0,*5E
1508893499.36,23671,9.63,74040.0,-2.33,-32.13,-32.91,0,*59
1508893500.65,23672,9.63,74044.0,-2.33,-31.39,-32.07,0,*5E
1508893501.91,23673,9.63,74042.5,-2.33,-31.05,-31.73,0,*50
1508893503.16,23674,9.63,74040.0,-2.33,-30.89,-31.67,0,*57
1508893504.39,23675,9.56,74038.3,-2.33,-31.05,-31.67,0,*53
1508893505.62,23676,9.63,74040.3,-2.29,-31.01,-31.67,0,*5F
1508893506.88,23677,9.63,74040.5,-2.29,-31.29,-31.85,0,*58
1508893508.11,23678,9.63,74042.8,-2.29,-31.33,-32.01,0,*53
1508893509.37,23679,9.63,74038.3,-2.29,-31.33,-32.07,0,*54
1508893510.58,23680,9.63,74038.0,-2.27,-31.45,-32.01,0,*5B
1508893511.87,23681,9.63,74038.3,-2.29,-30.95,-31.61,0,*5D
1508893513.11,23682,9.63,74036.0,-2.27,-30.95,-31.79,0,*59
1508893514.37,23683,9.63,74040.3,-2.27,-30.73,-31.39,0,*54
1508893515.6,23684,9.63,74040.0,-2.27,-30.55,-31.29,0,*56
1508893516.83,23685,9.63,74040.8,-2.21,-30.45,-31.17,0,*5D
1508893518.09,23686,9.63,74040.5,-2.23,-30.73,-31.39,0,*55
1508893519.34,23687,9.63,74042.0,-2.21,-31.17,-31.73,0,*5B
1508893520.64,23688,9.63,74038.8,-2.21,-31.23,-31.95,0,*5B
1508893521.89,23689,9.63,74038.3,-2.21,-31.17,-31.73,0,*55
1508893523.12,23690,9.63,74038.3,-2.21,-31.17,-31.79,0,*57
1508893524.35,23691,9.63,74040.8,-2.23,-31.01,-31.61,0,*5A
1508893525.58,23692,9.63,74042.0,-2.19,-31.05,-31.61,0,*54
1508893526.81,23693,9.63,74042.0,-2.19,-31.17,-31.73,0,*55
1508893528.03,23694,9.63,74044.0,-2.19,-31.39,-32.13,0,*5B
1508893529.26,23695,9.63,74038.8,-2.19,-31.05,-31.61,0,*53
1508893530.51,23696,9.63,74040.5,-2.17,-31.29,-31.73,0,*53
1508893531.77,23697,9.63,74042.3,-2.17,-30.67,-31.51,0,*59
1508893533.02,23698,9.63,74040.5,-2.19,-30.73,-31.51,0,*5D
1508893534.28,23699,9.63,74040.8,-2.17,-31.29,-31.85,0,*55
1508893535.5,23700,9.56,74038.8,-2.17,-31.29,-32.01,0,*5B
1508893536.73,23701,9.63,74036.3,-2.19,-31.51,-32.13,0,*58
1508893537.96,23702,9.63,74036.3,-2.17,-31.33,-32.01,0,*52
1508893539.24,23703,9.63,74040.0,-2.17,-31.11,-31.73,0,*55
1508893540.5,23704,9.63,74040.3,-2.17,-31.11,-31.67,0,*57
1508893541.75,23705,9.63,74042.5,-2.17,-30.95,-31.67,0,*5B
1508893542.98,23706,9.63,74040.0,-2.15,-31.11,-31.67,0,*57
1508893544.2,23707,9.63,74044.3,-2.15,-30.67,-31.45,0,*56
1508893545.43,23708,9.63,74040.8,-2.15,-30.45,-31.11,0,*58
1508893546.66,23709,9.63,74038.3,-2.13,-30.45,-31.05,0,*5A
1508893547.92,23710,9.63,74038.5,-2.11,-30.73,-31.45,0,*51
1508893549.18,23711,9.63,74042.3,-2.11,-30.67,-31.23,0,*55
1508893550.44,23712,9.63,74040.3,-2.11,-30.39,-31.17,0,*5A
1508893551.67,23713,9.63,74042.0,-2.11,-30.33,-31.05,0,*52
1508893552.89,23714,9.63,74042.5,-2.11,-30.33,-31.01,0,*51
1508893554.14,23715,9.63,74042.0,-2.07,-30.11,-30.83,0,*5C
1508893555.41,23716,9.63,74040.0,-2.07,-30.11,-30.77,0,*54
1508893556.66,23717,9.63,74042.8,-2.07,-30.23,-30.95,0,*58
1508893557.9,23718,9.56,74038.8,-2.05,-30.27,-30.95,0,*51
1508893559.1,23719,9.63,74044.3,-2.05,-30.33,-31.01,0,*59
1508893560.36,23720,9.63,74042.5,-2.05,-30.61,-31.39,0,*5F
1508893561.58,23721,9.63,74040.3,-2.05,-31.01,-31.73,0,*57
1508893562.79,23722,9.63,74042.8,-2.05,-31.67,-32.39,0,*59
1508893564.06,23723,9.63,74040.5,-2.07,-31.85,-32.51,0,*58
1508893565.31,23724,9.63,74040.3,-2.05,-32.01,-32.75,0,*54
1508893566.57,23725,9.56,74038.8,-2.05,-32.07,-32.79,0,*5F
1508893567.86,23726,9.63,74040.0,-2.07,-31.91,-32.63,0,*59
1508893569.12,23727,9.63,74038.0,-2.07,-31.57,-32.23,0,*56
1508893570.41,23728,9.63,74038.3,-2.07,-31.51,-32.19,0,*56
1508893571.66,23729,9.63,74040.5,-2.07,-31.17,-31.73,0,*5A
1508893572.92,23730,9.63,74038.3,-2.07,-31.29,-31.73,0,*5F
1508893574.15,23731,9.63,74038.3,-2.05,-31.11,-31.67,0,*52
1508893575.39,23732,9.63,74038.3,-2.05,-30.83,-31.51,0,*5E
1508893576.63,23733,9.63,74038.5,-2.05,-30.83,-31.51,0,*5F
1508893577.89,23734,9.63,74038.3,-2.07,-31.17,-31.91,0,*5A
1508893579.15,23735,9.63,74038.8,-2.05,-31.39,-32.07,0,*59
1508893580.41,23736,9.63,74038.0,-2.05,-31.57,-32.19,0,*5D
1508893581.65,23737,9.63,74038.5,-2.05,-31.57,-32.23,0,*55
1508893582.85,23738,9.63,74036.8,-2.05,-31.29,-32.01,0,*53
1508893584.12,23739,9.63,74036.3,-2.07,-31.11,-31.67,0,*58
1508893585.37,23740,9.63,74038.5,-2.05,-30.77,-31.39,0,*5E
1508893586.61,23741,9.63,74036.5,-2.05,-30.77,-31.33,0,*55
1508893587.86,23742,9.63,74036.8,-2.01,-30.39,-31.11,0,*58
1508893589.08,23743,9.63,74038.5,-2.01,-30.39,-31.05,0,*5C
1508893590.33,23744,9.63,74036.5,-1.99,-30.45,-31.11,0,*57
1508893591.58,23745,9.63,74038.0,-1.99,-30.55,-31.29,0,*5C
1508893592.81,23746,9.63,74038.8,-1.97,-30.51,-31.17,0,*58
1508893594.06,23747,9.63,74040.0,-1.97,-30.51,-31.23,0,*5E
1508893595.3,23748,9.63,74036.3,-1.97,-30.83,-31.39,0,*55
1508893596.51,23749,9.63,74038.5,-1.97,-30.83,-31.45,0,*5F
1508893597.73,23750,9.63,74038.3,-1.97,-30.83,-31.57,0,*54
1508893598.96,23751,9.63,74038.0,-1.97,-31.01,-31.61,0,*5B
1508893600.2,23752,9.63,74036.8,-1.95,-31.01,-31.57,0,*5F
1508893601.43,23753,9.63,74038.8,-1.95,-31.17,-31.79,0,*55
1508893602.7,23754,9.63,74042.0,-1.95,-31.45,-32.07,0,*5F
1508893603.93,23755,9.63,74036.5,-1.97,-31.23,-31.79,0,*56
1508893605.16,23756,9.56,74036.8,-1.97,-31.45,-32.07,0,*5F
1508893606.44,23757,9.56,74032.3,-1.95,-31.57,-32.29,0,*53
1508893607.67,23758,9.63,74036.5,-1.97,-31.29,-31.95,0,*53
1508893608.93,23759,9.63,74036.5,-1.95,-31.29,-31.91,0,*54
1508893610.13,23760,9.63,74036.5,-1.97,-31.17,-31.79,0,*57
1508893611.39,23761,9.63,74038.8,-1.97,-31.23,-31.91,0,*57
1508893612.62,23762,9.63,74034.8,-1.97,-31.61,-32.23,0,*58
1508893613.88,23763,9.63,74036.3,-1.95,-31.91,-32.51,0,*51
1508893615.13,23764,9.63,74038.3,-1.97,-31.91,-32.63,0,*55
1508893616.34,23765,9.63,74038.3,-1.93,-31.33,-32.01,0,*5C
1508893617.53,23766,9.63,74038.5,-1.97,-31.01,-31.79,0,*56
1508893618.76,23767,9.63,74036.5,-1.97,-30.83,-31.61,0,*55
1508893619.99,23768,9.63,74040.0,-1.97,-31.17,-31.73,0,*55
1508893621.24,23769,9.63,74038.5,-1.95,-31.05,-31.61,0,*56
1508893622.5,23770,9.63,74038.5,-1.95,-31.01,-31.61,0,*5A
1508893623.78,23771,9.63,74038.8,-1.95,-31.23,-31.95,0,*50
1508893625.07,23772,9.63,74034.5,-1.95,-31.39,-32.07,0,*50
1508893626.35,23773,9.63,74036.3,-1.95,-31.61,-32.29,0,*50
1508893627.61,23774,9.63,74034.8,-1.93,-31.51,-32.19,0,*51
1508893628.86,23775,9.63,74038.8,-1.95,-31.61,-32.23,0,*5C
1508893630.12,23776,9.63,74038.5,-1.93,-31.51,-32.19,0,*53
1508893631.33,23777,9.63,74032.8,-1.97,-31.79,-32.51,0,*50
1508893632.59,23778,9.63,74034.0,-1.95,-31.91,-32.51,0,*5B
1508893633.87,23779,9.56,74032.8,-1.95,-31.91,-32.63,0,*5B
1508893635.15,23780,9.63,74036.8,-1.95,-31.91,-32.63,0,*5D
1508893636.39,23781,9.63,74036.3,-1.97,-31.61,-32.23,0,*55
1508893637.64,23782,9.63,74036.0,-1.97,-31.61,-32.29,0,*5C
1508893638.87,23783,9.63,74032.8,-1.97,-31.73,-32.39,0,*5F
1508893640.13,23784,9.63,74038.3,-1.95,-32.07,-32.69,0,*5F
1508893641.4,23785,9.63,74032.5,-1.95,-31.95,-32.69,0,*56
1508893642.62,23786,9.63,74032.5,-1.97,-32.23,-32.97,0,*58
1508893643.85,23787,9.63,74034.8,-1.97,-32.13,-32.79,0,*5A
1508893645.12,23788,9.63,74032.8,-1.99,-32.01,-32.75,0,*54
1508893646.36,23789,9.63,74034.3,-1.99,-32.01,-32.69,0,*58
1508893647.62,23790,9.63,74034.0,-1.99,-31.95,-32.69,0,*5E
1508893648.9,23791,9.63,74036.3,-1.99,-31.51,-32.29,0,*53
1508893650.16,23792,9.63,74032.8,-1.99,-31.95,-32.57,0,*51
1508893651.41,23793,9.56,74034.8,-1.99,-31.85,-32.57,0,*51
1508893652.64,23794,9.63,74034.0,-1.99,-31.67,-32.35,0,*5E
1508893653.87,23795,9.63,74036.8,-1.99,-31.45,-32.13,0,*5B
1508893655.13,23796,9.63,74036.0,-1.99,-31.33,-31.95,0,*54
1508893656.41,23797,9.63,74038.8,-1.99,-30.89,-31.51,0,*5D
1508893657.7,23798,9.63,74036.3,-1.99,-30.95,-31.61,0,*5C
1508893658.95,23799,9.63,74034.3,-1.99,-30.95,-31.67,0,*5B
1508893660.18,23800,9.63,74038.3,-1.97,-30.83,-31.39,0,*56
1508893661.38,23801,9.63,74034.3,-1.97,-30.33,-31.05,0,*53
1508893662.62,23802,9.63,74032.3,-1.95,-30.67,-31.29,0,*5D
1508893663.88,23803,9.63,74038.3,-1.95,-30.67,-31.23,0,*56
1508893665.15,23804,9.56,74034.8,-1.95,-30.67,-31.23,0,*51
1508893666.43,23805,9.63,74038.0,-1.95,-30.73,-31.39,0,*5E
1508893667.69,23806,9.63,74038.8,-1.95,-30.67,-31.39,0,*58
1508893668.93,23807,9.63,74038.0,-1.93,-30.67,-31.23,0,*54
1508893670.18,23808,9.56,74036.8,-1.91,-31.23,-32.01,0,*5B
1508893671.44,23809,9.63,74036.3,-1.93,-31.39,-32.07,0,*55
1508893672.7,23810,9.63,74036.5,-1.91,-31.17,-31.85,0,*5A
1508893673.92,23811,9.63,74036.8,-1.91,-31.01,-31.67,0,*50
1508893675.18,23812,9.63,74036.8,-1.91,-31.17,-31.91,0,*5D
1508893676.38,23813,9.63,74036.8,-1.93,-31.33,-32.01,0,*52
1508893677.66,23814,9.63,74038.3,-1.91,-31.39,-32.19,0,*54
1508893678.92,23815,9.63,74036.5,-1.93,-31.85,-32.45,0,*59
1508893680.18,23816,9.63,74036.8,-1.93,-31.85,-32.45,0,*5A
1508893681.38,23817,9.63,74036.5,-1.93,-31.67,-32.35,0,*50
1508893682.64,23818,9.63,74038.5,-1.93,-31.57,-32.19,0,*52
1508893683.9,23819,9.63,74036.8,-1.93,-31.39,-32.07,0,*54
1508893685.13,23820,9.63,74038.8,-1.93,-31.33,-31.91,0,*58
1508893686.36,23821,9.56,74034.0,-1.93,-31.33,-31.91,0,*59
1508893687.56,23822,9.63,74036.8,-1.93,-31.33,-32.01,0,*50
1508893688.78,23823,9.63,74038.8,-1.93,-30.95,-31.67,0,*5F
1508893690.04,23824,9.63,74036.5,-1.93,-31.11,-31.73,0,*50
1508893691.29,23825,9.63,74036.3,-1.91,-31.17,-31.73,0,*55
1508893692.5,23826,9.63,74040.5,-1.93,-31.33,-32.01,0,*54
1508893693.78,23827,9.63,74038.8,-1.91,-31.51,-32.19,0,*5A
1508893694.98,23828,9.56,74032.8,-1.93,-31.67,-32.23,0,*5B
1508893696.21,23829,9.63,74036.0,-1.93,-31.67,-32.45,0,*5A
1508893697.44,23830,9.63,74036.3,-1.93,-31.73,-32.35,0,*50
1508893698.64,23831,9.63,74038.0,-1.93,-31.33,-32.01,0,*52
1508893699.9,23832,9.63,74036.3,-1.93,-31.11,-31.85,0,*5E
1508893701.16,23833,9.56,74032.3,-1.91,-31.17,-31.85,0,*5B
1508893702.38,23834,9.63,74038.5,-1.93,-31.01,-31.73,0,*50
1508893703.64,23835,9.56,74034.0,-1.93,-31.23,-31.91,0,*5D
1508893704.89,23836,9.56,74034.5,-1.91,-31.33,-31.91,0,*5D
1508893706.18,23837,9.63,74034.5,-1.91,-31.51,-32.19,0,*5B
1508893707.43,23838,9.63,74036.5,-1.91,-31.73,-32.35,0,*5A